,,Stat5,,Stat1,,Stat2,,Stat3,,Stat4,,Wind1,,Wind1,
time,status,PA1M_AVG,status,PR1M_SUM,status,RH1M_AVG,status,SR1M_AVG,status,TA1M_AVG,status,W1dAve1m,status,W1sAve1m,
2002-11-07, 00:00:00,VALID,918.11,VALID,0,VALID,99.7243,VALID,-0.0679233,VALID,19.2465,VALID,122,VALID,0.25067,
2002-11-07, 00:01:00,VALID,918.118,VALID,0,VALID,99.7281,VALID,-0.0849042,VALID,19.2666,VALID,105,VALID,0.721205,
2002-11-07, 00:02:00,VALID,918.113,VALID,0,VALID,99.7218,VALID,-0.0849042,VALID,19.2662,VALID,104,VALID,0.901042,
2002-11-07, 00:03:00,VALID,918.115,VALID,0,VALID,99.7269,VALID,-0.0679233,VALID,19.2699,VALID,83,VALID,0.912914,
2002-11-07, 00:04:00,VALID,918.127,VALID,0,VALID,99.7243,VALID,-0.0509425,VALID,19.2624,VALID,78,VALID,0.692472,
2002-11-07, 00:05:00,VALID,918.112,VALID,0,VALID,99.723,VALID,-0.0509425,VALID,19.2925,VALID,91,VALID,0.724095,
2002-11-07, 00:06:00,VALID,918.107,VALID,0,VALID,99.7218,VALID,-0.0679233,VALID,19.2858,VALID,106,VALID,0.693015,
2002-11-07, 00:07:00,VALID,918.101,VALID,0,VALID,99.7294,VALID,-0.0509425,VALID,19.2756,VALID,129,VALID,0.900568,
2002-11-07, 00:08:00,VALID,918.086,VALID,0,VALID,99.7307,VALID,-0.0169808,VALID,19.2853,VALID,146,VALID,0.911458,
2002-11-07, 00:09:00,VALID,918.057,VALID,0,VALID,99.7141,VALID,-0.101885,VALID,19.2918,VALID,155,VALID,0.874349,
2002-11-07, 00:10:00,VALID,918.058,VALID,0,VALID,99.7319,VALID,-0.0509425,VALID,19.2989,VALID,147,VALID,0.900331,
2002-11-07, 00:11:00,VALID,918.045,VALID,0,VALID,99.7281,VALID,-0.0339617,VALID,19.2982,VALID,138,VALID,0.569196,
2002-11-07, 00:12:00,VALID,918.035,VALID,0,VALID,99.7294,VALID,-0.0679233,VALID,19.3119,VALID,117,VALID,0.816741,
2002-11-07, 00:13:00,VALID,918.039,VALID,0,VALID,99.7294,VALID,-0.0509425,VALID,19.3084,VALID,94,VALID,0.938965,
2002-11-07, 00:14:00,VALID,918.04,VALID,0,VALID,99.7256,VALID,-0.0339617,VALID,19.3022,VALID,113,VALID,0.600123,
2002-11-07, 00:15:00,VALID,918.019,VALID,0,VALID,99.7205,VALID,-0.0339617,VALID,19.2888,VALID,126,VALID,0.49977,
2002-11-07, 00:16:00,VALID,918.012,VALID,0,VALID,99.723,VALID,-0.0339617,VALID,19.3022,VALID,135,VALID,0.425663,
2002-11-07, 00:17:00,VALID,917.974,VALID,0,VALID,99.7332,VALID,-0.0169808,VALID,19.2989,VALID,135,VALID,0.477431,
2002-11-07, 00:18:00,VALID,917.961,VALID,0,VALID,99.7269,VALID,-0.0509425,VALID,19.2985,VALID,153,VALID,0.511502,
2002-11-07, 00:19:00,VALID,917.954,VALID,0,VALID,99.7294,VALID,-0.101885,VALID,19.292,VALID,144,VALID,0.438684,
2002-11-07, 00:20:00,VALID,917.954,VALID,0,VALID,99.7269,VALID,-0.0509425,VALID,19.3178,VALID,135,VALID,0.569866,
2002-11-07, 00:21:00,VALID,917.963,VALID,0,VALID,99.7218,VALID,0,VALID,19.3079,VALID,130,VALID,0.923437,
2002-11-07, 00:22:00,VALID,917.957,VALID,0,VALID,99.7154,VALID,-0.0339617,VALID,19.3111,VALID,129,VALID,0.866699,
2002-11-07, 00:23:00,VALID,917.951,VALID,0,VALID,99.7167,VALID,-0.0679233,VALID,19.3081,VALID,142,VALID,0.791941,
2002-11-07, 00:24:00,VALID,917.953,VALID,0,VALID,99.7218,VALID,-0.0339617,VALID,19.3017,VALID,133,VALID,0.767004,
2002-11-07, 00:25:00,VALID,917.926,VALID,0,VALID,99.7218,VALID,-0.0339617,VALID,19.295,VALID,143,VALID,0.988873,
2002-11-07, 00:26:00,VALID,917.9,VALID,0,VALID,99.718,VALID,-0.0509425,VALID,19.288,VALID,155,VALID,1.00998,
2002-11-07, 00:27:00,VALID,917.891,VALID,0,VALID,99.7256,VALID,-0.0679233,VALID,19.3014,VALID,149,VALID,0.801866,
2002-11-07, 00:28:00,VALID,917.891,VALID,0,VALID,99.7243,VALID,-0.0509425,VALID,19.3019,VALID,139,VALID,0.947443,
2002-11-07, 00:29:00,VALID,917.889,VALID,0,VALID,99.7116,VALID,-0.0509425,VALID,19.295,VALID,136,VALID,0.93683,
2002-11-07, 00:30:00,VALID,917.888,VALID,0,VALID,99.7294,VALID,-0.0509425,VALID,19.2955,VALID,126,VALID,0.88125,
2002-11-07, 00:31:00,VALID,917.883,VALID,0,VALID,99.7192,VALID,-0.0509425,VALID,19.2985,VALID,121,VALID,0.776123,
2002-11-07, 00:32:00,VALID,917.859,VALID,0,VALID,99.7319,VALID,-0.0339617,VALID,19.2982,VALID,123,VALID,0.582031,
2002-11-07, 00:33:00,VALID,917.842,VALID,0,VALID,99.7307,VALID,-0.0169808,VALID,19.2855,VALID,122,VALID,0.674403,
2002-11-07, 00:34:00,VALID,917.825,VALID,0,VALID,99.7345,VALID,-0.0339617,VALID,19.2751,VALID,139,VALID,0.759233,
2002-11-07, 00:35:00,VALID,917.794,VALID,0,VALID,99.7332,VALID,-0.0169808,VALID,19.2821,VALID,148,VALID,0.533637,
2002-11-07, 00:36:00,VALID,917.791,VALID,0,VALID,99.7281,VALID,-0.0339617,VALID,19.2848,VALID,150,VALID,0.900608,
2002-11-07, 00:37:00,VALID,917.773,VALID,0,VALID,99.7269,VALID,-0.0509425,VALID,19.2818,VALID,155,VALID,0.898201,
2002-11-07, 00:38:00,VALID,917.779,VALID,0,VALID,99.7154,VALID,-0.0509425,VALID,19.2759,VALID,151,VALID,0.801562,
2002-11-07, 00:39:00,VALID,917.775,VALID,0.2,VALID,99.7243,VALID,-0.0509425,VALID,19.2756,VALID,142,VALID,0.640848,
2002-11-07, 00:40:00,VALID,917.776,VALID,0,VALID,99.7307,VALID,-0.0849042,VALID,19.2855,VALID,132,VALID,0.498291,
2002-11-07, 00:41:00,VALID,917.768,VALID,0,VALID,99.7281,VALID,-0.0509425,VALID,19.3024,VALID,125,VALID,0.512747,
2002-11-07, 00:42:00,VALID,917.753,VALID,0,VALID,99.7281,VALID,-0.0849042,VALID,19.2823,VALID,107,VALID,0.546875,
2002-11-07, 00:43:00,VALID,917.729,VALID,0,VALID,99.7256,VALID,-0.0849042,VALID,19.2888,VALID,118,VALID,0.379972,
2002-11-07, 00:44:00,VALID,917.705,VALID,0,VALID,99.7294,VALID,-0.0679233,VALID,19.2955,VALID,134,VALID,0.238809,
2002-11-07, 00:45:00,VALID,917.695,VALID,0.2,VALID,99.7358,VALID,-0.0849042,VALID,19.2957,VALID,143,VALID,0.551866,
2002-11-07, 00:46:00,VALID,917.674,VALID,0.2,VALID,99.7256,VALID,-0.0849042,VALID,19.2985,VALID,140,VALID,0.46875,
2002-11-07, 00:47:00,VALID,917.649,VALID,0.2,VALID,99.7294,VALID,-0.0679233,VALID,19.3022,VALID,140,VALID,0.506027,
2002-11-07, 00:48:00,VALID,917.629,VALID,0,VALID,99.7218,VALID,-0.0679233,VALID,19.2952,VALID,141,VALID,0.510938,
2002-11-07, 00:49:00,VALID,917.631,VALID,0,VALID,99.7205,VALID,-0.0849042,VALID,19.3114,VALID,112,VALID,0.30249,
2002-11-07, 00:50:00,VALID,917.614,VALID,0.2,VALID,99.7294,VALID,0.0849042,VALID,19.3035,VALID,107,VALID,0.734169,
2002-11-07, 00:51:00,VALID,917.602,VALID,0,VALID,99.7243,VALID,0.101885,VALID,19.2771,VALID,108,VALID,0.72955,
2002-11-07, 00:52:00,VALID,917.596,VALID,0,VALID,99.7332,VALID,0.0509425,VALID,19.2714,VALID,103,VALID,0.513731,
2002-11-07, 00:53:00,VALID,917.575,VALID,0,VALID,99.7307,VALID,0.0849042,VALID,19.2709,VALID,96,VALID,0.393446,
2002-11-07, 00:54:00,VALID,917.554,VALID,0,VALID,99.7256,VALID,0.0169808,VALID,19.2806,VALID,95,VALID,0.399523,
2002-11-07, 00:55:00,VALID,917.521,VALID,0,VALID,99.7269,VALID,0.0509425,VALID,19.2677,VALID,108,VALID,0.275805,
2002-11-07, 00:56:00,VALID,917.49,VALID,0,VALID,99.737,VALID,0.0679233,VALID,19.2843,VALID,116,VALID,0.102232,
2002-11-07, 00:57:00,VALID,917.455,VALID,0,VALID,99.7294,VALID,0.0339617,VALID,19.2871,VALID,123,VALID,0.162277,
2002-11-07, 00:58:00,VALID,917.434,VALID,0,VALID,99.737,VALID,0.0679233,VALID,19.3067,VALID,123,VALID,0.0300293,
2002-11-07, 00:59:00,VALID,917.408,VALID,0,VALID,99.7332,VALID,0.0849042,VALID,19.3291,VALID,123,VALID,0.253701,
2002-11-07, 01:00:00,VALID,917.401,VALID,0,VALID,99.737,VALID,0.0509425,VALID,19.3584,VALID,123,VALID,0.283088,
2002-11-07, 01:01:00,VALID,917.394,VALID,0,VALID,99.737,VALID,0.0679233,VALID,19.3616,VALID,115,VALID,0.592803,
2002-11-07, 01:02:00,VALID,917.393,VALID,0,VALID,99.737,VALID,0.0509425,VALID,19.3517,VALID,107,VALID,0.725477,
2002-11-07, 01:03:00,VALID,917.373,VALID,0,VALID,99.723,VALID,0,VALID,19.3487,VALID,107,VALID,0.749132,
2002-11-07, 01:04:00,VALID,917.346,VALID,0,VALID,99.7294,VALID,0.0339617,VALID,19.3529,VALID,102,VALID,0.513494,
2002-11-07, 01:05:00,VALID,917.309,VALID,0,VALID,99.7269,VALID,-0.0509425,VALID,19.3472,VALID,79,VALID,0.582812,
2002-11-07, 01:06:00,VALID,917.275,VALID,0,VALID,99.737,VALID,0,VALID,19.3566,VALID,58,VALID,0.557143,
2002-11-07, 01:07:00,VALID,917.242,VALID,0,VALID,99.7294,VALID,-0.0339617,VALID,19.3665,VALID,48,VALID,0.362549,
2002-11-07, 01:08:00,VALID,917.212,VALID,0,VALID,99.7332,VALID,-0.0339617,VALID,19.376,VALID,48,VALID,0.317229,
2002-11-07, 01:09:00,VALID,917.192,VALID,0,VALID,99.7307,VALID,0,VALID,19.3792,VALID,48,VALID,0.230239,
2002-11-07, 01:10:00,VALID,917.191,VALID,0,VALID,99.7345,VALID,-0.101885,VALID,19.3631,VALID,48,VALID,0.292614,
2002-11-07, 01:11:00,VALID,917.171,VALID,0,VALID,99.7307,VALID,-0.0509425,VALID,19.3407,VALID,58,VALID,0.387153,
2002-11-07, 01:12:00,VALID,917.189,VALID,0,VALID,99.723,VALID,-0.0339617,VALID,19.3245,VALID,74,VALID,0.606554,
2002-11-07, 01:13:00,VALID,917.18,VALID,0,VALID,99.7408,VALID,-0.0339617,VALID,19.2987,VALID,66,VALID,0.526278,
2002-11-07, 01:14:00,VALID,917.185,VALID,0,VALID,99.7408,VALID,-0.0509425,VALID,19.3019,VALID,59,VALID,0.588393,
2002-11-07, 01:15:00,VALID,917.183,VALID,0,VALID,99.7421,VALID,-0.0169808,VALID,19.3049,VALID,59,VALID,0.470536,
2002-11-07, 01:16:00,VALID,917.17,VALID,0,VALID,99.7421,VALID,-0.0169808,VALID,19.2982,VALID,59,VALID,0.435059,
2002-11-07, 01:17:00,VALID,917.168,VALID,0,VALID,99.7485,VALID,-0.0169808,VALID,19.2724,VALID,54,VALID,0.304893,
2002-11-07, 01:18:00,VALID,917.136,VALID,0,VALID,99.7383,VALID,0,VALID,19.2629,VALID,42,VALID,0.113741,
2002-11-07, 01:19:00,VALID,917.114,VALID,0,VALID,99.7294,VALID,0,VALID,19.2694,VALID,41,VALID,0.248816,
2002-11-07, 01:20:00,VALID,917.087,VALID,0,VALID,99.7294,VALID,-0.0509425,VALID,19.2664,VALID,28,VALID,0.628038,
2002-11-07, 01:21:00,VALID,917.058,VALID,0,VALID,99.7345,VALID,-0.0509425,VALID,19.2788,VALID,22,VALID,0.692925,
2002-11-07, 01:22:00,VALID,917.046,VALID,0,VALID,99.7319,VALID,-0.0679233,VALID,19.2759,VALID,35,VALID,0.812973,
2002-11-07, 01:23:00,VALID,917.029,VALID,0,VALID,99.7281,VALID,-0.0679233,VALID,19.2597,VALID,52,VALID,0.61875,
2002-11-07, 01:24:00,VALID,917.024,VALID,0,VALID,99.7294,VALID,-0.0679233,VALID,19.2503,VALID,64,VALID,0.650893,
2002-11-07, 01:25:00,VALID,917.013,VALID,0,VALID,99.7345,VALID,-0.101885,VALID,19.2309,VALID,82,VALID,0.640869,
2002-11-07, 01:26:00,VALID,917.004,VALID,0,VALID,99.7294,VALID,0,VALID,19.1983,VALID,97,VALID,0.67866,
2002-11-07, 01:27:00,VALID,916.984,VALID,0,VALID,99.7421,VALID,-0.0339617,VALID,19.179,VALID,103,VALID,0.550092,
2002-11-07, 01:28:00,VALID,916.982,VALID,0,VALID,99.7421,VALID,-0.0509425,VALID,19.1762,VALID,96,VALID,0.596591,
2002-11-07, 01:29:00,VALID,916.964,VALID,0,VALID,99.7383,VALID,-0.0509425,VALID,19.1695,VALID,75,VALID,0.481988,
2002-11-07, 01:30:00,VALID,916.95,VALID,0,VALID,99.7421,VALID,-0.0679233,VALID,19.1732,VALID,66,VALID,0.60178,
2002-11-07, 01:31:00,VALID,916.947,VALID,0,VALID,99.7358,VALID,-0.0509425,VALID,19.1797,VALID,59,VALID,0.592803,
2002-11-07, 01:32:00,VALID,916.94,VALID,0,VALID,99.7447,VALID,-0.0339617,VALID,19.1631,VALID,61,VALID,0.536161,
2002-11-07, 01:33:00,VALID,916.938,VALID,0,VALID,99.7383,VALID,-0.0339617,VALID,19.1638,VALID,76,VALID,0.440402,
2002-11-07, 01:34:00,VALID,916.922,VALID,0,VALID,99.7459,VALID,-0.0679233,VALID,19.1305,VALID,95,VALID,0.231934,
2002-11-07, 01:35:00,VALID,916.922,VALID,0,VALID,99.7561,VALID,-0.0509425,VALID,19.1335,VALID,95,VALID,0,
2002-11-07, 01:36:00,VALID,916.918,VALID,0,VALID,99.765,VALID,-0.0339617,VALID,19.137,VALID,95,VALID,0.071921,
2002-11-07, 01:37:00,VALID,916.933,VALID,0,VALID,99.7536,VALID,-0.0509425,VALID,19.1504,VALID,95,VALID,0.00568182,
2002-11-07, 01:38:00,VALID,916.933,VALID,0,VALID,99.7523,VALID,-0.0339617,VALID,19.1439,VALID,95,VALID,0.113064,
2002-11-07, 01:39:00,VALID,916.933,VALID,0,VALID,99.7497,VALID,-0.0169808,VALID,19.1531,VALID,95,VALID,0.123047,
2002-11-07, 01:40:00,VALID,916.941,VALID,0,VALID,99.7561,VALID,-0.0339617,VALID,19.1432,VALID,109,VALID,0.312027,
2002-11-07, 01:41:00,VALID,916.914,VALID,0,VALID,99.7599,VALID,-0.0339617,VALID,19.1499,VALID,139,VALID,0.975893,
2002-11-07, 01:42:00,VALID,916.895,VALID,0,VALID,99.7561,VALID,-0.0169808,VALID,19.1432,VALID,145,VALID,0.851786,
2002-11-07, 01:43:00,VALID,916.885,VALID,0,VALID,99.7574,VALID,0,VALID,19.1497,VALID,145,VALID,0.801514,
2002-11-07, 01:44:00,VALID,916.871,VALID,0,VALID,99.7587,VALID,0,VALID,19.1467,VALID,143,VALID,0.764597,
2002-11-07, 01:45:00,VALID,916.844,VALID,0,VALID,99.7599,VALID,-0.0339617,VALID,19.1536,VALID,137,VALID,0.551471,
2002-11-07, 01:46:00,VALID,916.829,VALID,0,VALID,99.7612,VALID,-0.0339617,VALID,19.137,VALID,121,VALID,0.493134,
2002-11-07, 01:47:00,VALID,916.812,VALID,0,VALID,99.7675,VALID,-0.0169808,VALID,19.1273,VALID,120,VALID,0.459418,
2002-11-07, 01:48:00,VALID,916.812,VALID,0,VALID,99.7587,VALID,-0.0679233,VALID,19.1372,VALID,127,VALID,0.526259,
2002-11-07, 01:49:00,VALID,916.792,VALID,0,VALID,99.7574,VALID,-0.0679233,VALID,19.1407,VALID,116,VALID,0.612926,
2002-11-07, 01:50:00,VALID,916.795,VALID,0,VALID,99.7383,VALID,-0.0339617,VALID,19.137,VALID,97,VALID,0.47567,
2002-11-07, 01:51:00,VALID,916.783,VALID,0,VALID,99.7485,VALID,-0.0509425,VALID,19.1206,VALID,66,VALID,0.552679,
2002-11-07, 01:52:00,VALID,916.776,VALID,0,VALID,99.7497,VALID,0,VALID,19.1017,VALID,58,VALID,0.714355,
2002-11-07, 01:53:00,VALID,916.777,VALID,0,VALID,99.7536,VALID,-0.0509425,VALID,19.0985,VALID,61,VALID,0.777961,
2002-11-07, 01:54:00,VALID,916.782,VALID,0,VALID,99.7574,VALID,-0.0339617,VALID,19.0823,VALID,63,VALID,0.810202,
2002-11-07, 01:55:00,VALID,916.768,VALID,0,VALID,99.7675,VALID,-0.0679233,VALID,19.0694,VALID,74,VALID,0.785748,
2002-11-07, 01:56:00,VALID,916.763,VALID,0,VALID,99.7561,VALID,-0.0849042,VALID,19.0565,VALID,94,VALID,0.781467,
2002-11-07, 01:57:00,VALID,916.741,VALID,0,VALID,99.7637,VALID,-0.0849042,VALID,19.044,VALID,105,VALID,0.820747,
2002-11-07, 01:58:00,VALID,916.733,VALID,0,VALID,99.7587,VALID,-0.0849042,VALID,19.0473,VALID,113,VALID,0.602983,
2002-11-07, 01:59:00,VALID,916.735,VALID,0,VALID,99.7625,VALID,-0.0679233,VALID,19.0664,VALID,121,VALID,0.524777,
2002-11-07, 02:00:00,VALID,916.749,VALID,0,VALID,99.7561,VALID,-0.0339617,VALID,19.0758,VALID,124,VALID,0.64308,
2002-11-07, 02:01:00,VALID,916.745,VALID,0,VALID,99.7625,VALID,-0.0339617,VALID,19.0922,VALID,126,VALID,0.921631,
2002-11-07, 02:02:00,VALID,916.758,VALID,0,VALID,99.7548,VALID,-0.0509425,VALID,19.0821,VALID,127,VALID,0.881373,
2002-11-07, 02:03:00,VALID,916.76,VALID,0,VALID,99.7561,VALID,-0.0339617,VALID,19.0925,VALID,127,VALID,0.716452,
2002-11-07, 02:04:00,VALID,916.747,VALID,0,VALID,99.7701,VALID,0,VALID,19.0694,VALID,135,VALID,0.725142,
2002-11-07, 02:05:00,VALID,916.745,VALID,0,VALID,99.7726,VALID,-0.0169808,VALID,19.0851,VALID,129,VALID,0.686415,
2002-11-07, 02:06:00,VALID,916.731,VALID,0,VALID,99.7675,VALID,0.0339617,VALID,19.0714,VALID,126,VALID,0.681207,
2002-11-07, 02:07:00,VALID,916.717,VALID,0,VALID,99.7688,VALID,0.0339617,VALID,19.0816,VALID,130,VALID,0.714962,
2002-11-07, 02:08:00,VALID,916.71,VALID,0,VALID,99.7637,VALID,0.0169808,VALID,19.0553,VALID,124,VALID,0.5625,
2002-11-07, 02:09:00,VALID,916.718,VALID,0,VALID,99.7675,VALID,0,VALID,19.062,VALID,123,VALID,0.552679,
2002-11-07, 02:10:00,VALID,916.718,VALID,0,VALID,99.7625,VALID,-0.0169808,VALID,19.0558,VALID,101,VALID,0.687988,
2002-11-07, 02:11:00,VALID,916.701,VALID,0,VALID,99.7739,VALID,-0.0169808,VALID,19.0398,VALID,112,VALID,0.964844,
2002-11-07, 02:12:00,VALID,916.701,VALID,0,VALID,99.7675,VALID,-0.0339617,VALID,19.0299,VALID,114,VALID,1.14522,
2002-11-07, 02:13:00,VALID,916.695,VALID,0,VALID,99.7765,VALID,0,VALID,19.0336,VALID,110,VALID,0.934896,
2002-11-07, 02:14:00,VALID,916.665,VALID,0,VALID,99.7777,VALID,-0.0169808,VALID,19.0398,VALID,97,VALID,0.639974,
2002-11-07, 02:15:00,VALID,916.645,VALID,0,VALID,99.7777,VALID,0,VALID,19.0237,VALID,105,VALID,0.665148,
2002-11-07, 02:16:00,VALID,916.623,VALID,0,VALID,99.7828,VALID,0,VALID,19.0138,VALID,105,VALID,0.892282,
2002-11-07, 02:17:00,VALID,916.593,VALID,0,VALID,99.7675,VALID,0,VALID,19.0172,VALID,108,VALID,0.860268,
2002-11-07, 02:18:00,VALID,916.576,VALID,0,VALID,99.7803,VALID,-0.0169808,VALID,19.0138,VALID,113,VALID,0.759152,
2002-11-07, 02:19:00,VALID,916.556,VALID,0,VALID,99.7841,VALID,0,VALID,19.0105,VALID,124,VALID,0.600098,
2002-11-07, 02:20:00,VALID,916.544,VALID,0,VALID,99.7828,VALID,0,VALID,19.0105,VALID,136,VALID,0.657278,
2002-11-07, 02:21:00,VALID,916.519,VALID,0,VALID,99.7726,VALID,0,VALID,19.0105,VALID,123,VALID,0.569164,
2002-11-07, 02:22:00,VALID,916.494,VALID,0,VALID,99.7777,VALID,0,VALID,18.9979,VALID,128,VALID,0.230824,
2002-11-07, 02:23:00,VALID,916.472,VALID,0,VALID,99.779,VALID,-0.0169808,VALID,18.9946,VALID,120,VALID,0.206597,
2002-11-07, 02:24:00,VALID,916.444,VALID,0,VALID,99.7879,VALID,0,VALID,18.9949,VALID,117,VALID,0.118707,
2002-11-07, 02:25:00,VALID,916.444,VALID,0,VALID,99.7854,VALID,0,VALID,18.9785,VALID,63,VALID,0.31392,
2002-11-07, 02:26:00,VALID,916.426,VALID,0,VALID,99.779,VALID,-0.0169808,VALID,18.9589,VALID,88,VALID,0.521205,
2002-11-07, 02:27:00,VALID,916.436,VALID,0,VALID,99.7854,VALID,0,VALID,18.9815,VALID,90,VALID,0.433036,
2002-11-07, 02:28:00,VALID,916.423,VALID,0,VALID,99.7777,VALID,0,VALID,18.9755,VALID,84,VALID,0.526367,
2002-11-07, 02:29:00,VALID,916.416,VALID,0,VALID,99.7892,VALID,-0.0169808,VALID,18.9497,VALID,77,VALID,0.567434,
2002-11-07, 02:30:00,VALID,916.436,VALID,0,VALID,99.7854,VALID,-0.0509425,VALID,18.9337,VALID,76,VALID,0.376149,
2002-11-07, 02:31:00,VALID,916.43,VALID,0,VALID,99.7879,VALID,0,VALID,18.9074,VALID,70,VALID,0.307765,
2002-11-07, 02:32:00,VALID,916.424,VALID,0,VALID,99.7892,VALID,0.0169808,VALID,18.8655,VALID,57,VALID,0.317057,
2002-11-07, 02:33:00,VALID,916.416,VALID,0,VALID,99.7854,VALID,0.0169808,VALID,18.8297,VALID,61,VALID,0.389757,
2002-11-07, 02:34:00,VALID,916.427,VALID,0,VALID,99.807,VALID,0,VALID,18.8463,VALID,81,VALID,0.5,
2002-11-07, 02:35:00,VALID,916.426,VALID,0,VALID,99.7917,VALID,0,VALID,18.8493,VALID,98,VALID,0.598437,
2002-11-07, 02:36:00,VALID,916.426,VALID,0,VALID,99.7841,VALID,0,VALID,18.8655,VALID,119,VALID,0.75692,
2002-11-07, 02:37:00,VALID,916.442,VALID,0,VALID,99.7803,VALID,0,VALID,18.8779,VALID,122,VALID,0.230225,
2002-11-07, 02:38:00,VALID,916.459,VALID,0,VALID,99.7955,VALID,0,VALID,18.9012,VALID,135,VALID,0.294819,
2002-11-07, 02:39:00,VALID,916.464,VALID,0,VALID,99.7841,VALID,-0.0169808,VALID,18.8943,VALID,98,VALID,0.28125,
2002-11-07, 02:40:00,VALID,916.471,VALID,0,VALID,99.7943,VALID,0,VALID,18.9174,VALID,132,VALID,0.298059,
2002-11-07, 02:41:00,VALID,916.451,VALID,0,VALID,99.7917,VALID,0.0169808,VALID,18.9171,VALID,150,VALID,0.449219,
2002-11-07, 02:42:00,VALID,916.438,VALID,0,VALID,99.7879,VALID,0,VALID,18.9238,VALID,137,VALID,0.300564,
2002-11-07, 02:43:00,VALID,916.415,VALID,0,VALID,99.7828,VALID,0,VALID,18.9206,VALID,137,VALID,0.0293561,
2002-11-07, 02:44:00,VALID,916.411,VALID,0,VALID,99.7892,VALID,0,VALID,18.9303,VALID,121,VALID,0.431696,
2002-11-07, 02:45:00,VALID,916.388,VALID,0,VALID,99.7917,VALID,0.0169808,VALID,18.9139,VALID,111,VALID,0.56875,
2002-11-07, 02:46:00,VALID,916.383,VALID,0,VALID,99.7765,VALID,-0.0169808,VALID,18.9208,VALID,103,VALID,0.797607,
2002-11-07, 02:47:00,VALID,916.37,VALID,0,VALID,99.7854,VALID,0,VALID,18.9139,VALID,104,VALID,0.999589,
2002-11-07, 02:48:00,VALID,916.359,VALID,0,VALID,99.7866,VALID,0.0169808,VALID,18.9208,VALID,95,VALID,0.945772,
2002-11-07, 02:49:00,VALID,916.367,VALID,0,VALID,99.7854,VALID,0,VALID,18.9206,VALID,87,VALID,0.79285,
2002-11-07, 02:50:00,VALID,916.358,VALID,0,VALID,99.7981,VALID,0,VALID,18.8848,VALID,93,VALID,0.731771,
2002-11-07, 02:51:00,VALID,916.37,VALID,0,VALID,99.793,VALID,0,VALID,18.8491,VALID,84,VALID,0.80447,
2002-11-07, 02:52:00,VALID,916.366,VALID,0,VALID,99.8032,VALID,-0.0169808,VALID,18.8202,VALID,101,VALID,0.562973,
2002-11-07, 02:53:00,VALID,916.367,VALID,0,VALID,99.7955,VALID,0,VALID,18.7882,VALID,127,VALID,0.587946,
2002-11-07, 02:54:00,VALID,916.374,VALID,0,VALID,99.807,VALID,-0.0169808,VALID,18.7817,VALID,129,VALID,0.590179,
2002-11-07, 02:55:00,VALID,916.336,VALID,0,VALID,99.8082,VALID,0,VALID,18.7783,VALID,145,VALID,0.663818,
2002-11-07, 02:56:00,VALID,916.323,VALID,0,VALID,99.8082,VALID,0,VALID,18.7857,VALID,147,VALID,0.717311,
2002-11-07, 02:57:00,VALID,916.326,VALID,0,VALID,99.8108,VALID,0,VALID,18.7753,VALID,129,VALID,0.701287,
2002-11-07, 02:58:00,VALID,916.319,VALID,0,VALID,99.8235,VALID,0,VALID,18.7688,VALID,126,VALID,0.739583,
2002-11-07, 02:59:00,VALID,916.324,VALID,0,VALID,99.8159,VALID,0,VALID,18.7686,VALID,117,VALID,0.869792,
2002-11-07, 03:00:00,VALID,916.317,VALID,0,VALID,99.8095,VALID,0,VALID,18.7653,VALID,114,VALID,0.542969,
2002-11-07, 03:01:00,VALID,916.315,VALID,0,VALID,99.8121,VALID,0,VALID,18.7624,VALID,121,VALID,0.447206,
2002-11-07, 03:02:00,VALID,916.317,VALID,0,VALID,99.8095,VALID,0,VALID,18.7785,VALID,109,VALID,0.468304,
2002-11-07, 03:03:00,VALID,916.312,VALID,0,VALID,99.8121,VALID,0,VALID,18.7815,VALID,125,VALID,0.621429,
2002-11-07, 03:04:00,VALID,916.292,VALID,0,VALID,99.8108,VALID,0,VALID,18.8009,VALID,127,VALID,0.6604,
2002-11-07, 03:05:00,VALID,916.274,VALID,0,VALID,99.8108,VALID,-0.0339617,VALID,18.817,VALID,129,VALID,0.732113,
2002-11-07, 03:06:00,VALID,916.262,VALID,0,VALID,99.8019,VALID,0,VALID,18.8304,VALID,139,VALID,0.626838,
2002-11-07, 03:07:00,VALID,916.248,VALID,0,VALID,99.8108,VALID,-0.0169808,VALID,18.8399,VALID,132,VALID,0.557055,
2002-11-07, 03:08:00,VALID,916.236,VALID,0,VALID,99.8133,VALID,0,VALID,18.8399,VALID,144,VALID,0.804688,
2002-11-07, 03:09:00,VALID,916.235,VALID,0,VALID,99.8032,VALID,0,VALID,18.8431,VALID,134,VALID,0.910807,
2002-11-07, 03:10:00,VALID,916.225,VALID,0,VALID,99.7981,VALID,-0.0169808,VALID,18.8655,VALID,134,VALID,0.997869,
2002-11-07, 03:11:00,VALID,916.207,VALID,0,VALID,99.8032,VALID,-0.0339617,VALID,18.8818,VALID,144,VALID,0.710045,
2002-11-07, 03:12:00,VALID,916.207,VALID,0,VALID,99.7955,VALID,0,VALID,18.8913,VALID,126,VALID,1.32946,
2002-11-07, 03:13:00,VALID,916.213,VALID,0,VALID,99.8108,VALID,-0.0509425,VALID,18.9007,VALID,126,VALID,0.905762,
2002-11-07, 03:14:00,VALID,916.204,VALID,0,VALID,99.8044,VALID,-0.0169808,VALID,18.9303,VALID,126,VALID,1.55551,
2002-11-07, 03:15:00,VALID,916.197,VALID,0,VALID,99.8006,VALID,-0.0169808,VALID,18.9531,VALID,116,VALID,1.65809,
2002-11-07, 03:16:00,VALID,916.185,VALID,0,VALID,99.7904,VALID,0,VALID,18.9497,VALID,111,VALID,1.08523,
2002-11-07, 03:17:00,VALID,916.183,VALID,0,VALID,99.7955,VALID,-0.0169808,VALID,18.94,VALID,94,VALID,1.01519,
2002-11-07, 03:18:00,VALID,916.175,VALID,0,VALID,99.8006,VALID,0,VALID,18.9462,VALID,106,VALID,1.05208,
2002-11-07, 03:19:00,VALID,916.166,VALID,0,VALID,99.8032,VALID,-0.0169808,VALID,18.9526,VALID,87,VALID,0.887547,
2002-11-07, 03:20:00,VALID,916.159,VALID,0,VALID,99.7993,VALID,0,VALID,18.9497,VALID,84,VALID,1.26875,
2002-11-07, 03:21:00,VALID,916.156,VALID,0,VALID,99.807,VALID,0,VALID,18.94,VALID,111,VALID,1.00446,
2002-11-07, 03:22:00,VALID,916.155,VALID,0,VALID,99.8082,VALID,-0.0169808,VALID,18.9365,VALID,87,VALID,0.730713,
2002-11-07, 03:23:00,VALID,916.159,VALID,0,VALID,99.793,VALID,0,VALID,18.9333,VALID,109,VALID,0.632401,
2002-11-07, 03:24:00,VALID,916.141,VALID,0,VALID,99.7981,VALID,-0.0509425,VALID,18.9372,VALID,78,VALID,0.397748,
2002-11-07, 03:25:00,VALID,916.131,VALID,0,VALID,99.807,VALID,0,VALID,18.9174,VALID,101,VALID,0.373343,
2002-11-07, 03:26:00,VALID,916.144,VALID,0,VALID,99.8095,VALID,0,VALID,18.9077,VALID,111,VALID,0.79362,
2002-11-07, 03:27:00,VALID,916.126,VALID,0,VALID,99.8019,VALID,-0.0509425,VALID,18.9263,VALID,123,VALID,0.75217,
2002-11-07, 03:28:00,VALID,916.125,VALID,0,VALID,99.8082,VALID,-0.0339617,VALID,18.9335,VALID,108,VALID,1.17211,
2002-11-07, 03:29:00,VALID,916.121,VALID,0,VALID,99.8019,VALID,0.0169808,VALID,18.9206,VALID,94,VALID,0.679018,
2002-11-07, 03:30:00,VALID,916.126,VALID,0,VALID,99.8146,VALID,-0.0169808,VALID,18.8945,VALID,88,VALID,0.71942,
2002-11-07, 03:31:00,VALID,916.109,VALID,0,VALID,99.8121,VALID,-0.0339617,VALID,18.8722,VALID,86,VALID,0.792236,
2002-11-07, 03:32:00,VALID,916.114,VALID,0,VALID,99.8121,VALID,0,VALID,18.8622,VALID,87,VALID,0.812089,